Other Surface Observations
Issued by NWS

Home | Current Version | Previous Version | Text Only | Print | Product List | Glossary On
Versions: 1 2 3 4 5 6 7 8 9 10 11 12 13 14 15 16 17 18 19 20 21 22 23 24 25 26 27 28 29 30 31 32 33 34 35 36 37 38 39 40 41 42 43 44 45 46 47 48 49 50
000
SXUS52 KTAE 210618
OSOTAE
OSOTAE
North Florida/South Alabama/Southwest Georgia Weather Roundup
National Weather Service Tallahassee Florida
100 AM EST SUN DEC 21 2014

Note: "fair" indicates few or no clouds below 12,000 feet with no
significant weather and/or obstructions to visibility.

!FLZ017-115-028-034-025-210700
...North Florida...

CITY           SKY/WX    TMP DP  RH WIND       PRES   REMARKS
TALLAHASSEE    LGT RAIN  56  51  84 N7        30.12R
APALACHICOLA   CLOUDY    57  53  86 NE13      30.07F
PERRY          CLOUDY    58  53  84 NE3       30.10F
CROSS CITY       N/A     58  54  86 E5        30.09F
JACKSONVILLE   CLOUDY    57  57 100 NE10      30.13F
$$

!FLZ112-006-005-002-011-210700
...Florida Panhandle...

CITY           SKY/WX    TMP DP  RH WIND       PRES   REMARKS
MARIANNA       CLOUDY    54  54 100 NE8       30.13F
BONIFAY        NOT AVBL
PANAMA CITY NW CLOUDY    55  52  89 N7        30.10F
TYNDALL AFB    NOT AVBL
TYND DRONE APT NOT AVBL
DE FUNIAK SPR  CLOUDY    51  50  95 NE10      30.12S
EGLIN AFB      CLOUDY    52  50  92 N7        30.11F
DESTIN         CLOUDY    54  51  90 NE9       30.10F
HURLBURT       CLOUDY    52  48  85 NE12      30.10
CRESTVIEW      CLOUDY    51  49  92 N5        30.14F
PENSACOLA      CLOUDY    49  48  97 N7        30.12S
$$

!ALZ063-066-210700
...South Alabama...

CITY           SKY/WX    TMP DP  RH WIND       PRES   REMARKS
DOTHAN         CLOUDY    52  50  93 NE6       30.17S
OZARK CAIRNS   CLOUDY    52  49  89 NE7       30.13F
FT RUCKER HELI MOCLDY    52  49  89 VRB3      30.13F
RUCKER HELI 3  MOCLDY    51  50  95 NE5       30.16S
RUCKER HELI 2  CLOUDY    52  49  89 N5        30.14F
FLORALA APT    CLOUDY    52  49  89 NE7       30.14F
ANDALUSIA      CLOUDY    56  49  77 E6        30.14S
TROY           CLOUDY    52  49  89 E5        30.17R
EUFALA         CLOUDY    53  50  89 CALM      30.15F
MOBILE         CLOUDY    49  47  93 N6        30.15F
$$

!GAZ120>161-210700
...Southwest and South Central Georgia...

CITY           SKY/WX    TMP DP  RH WIND       PRES   REMARKS
THOMASVILLE    RAIN      55  55 100 NE6       30.14S
BAINBRIDGE     CLOUDY    55  54  94 NE8       30.14F
MOODY AFB      LGT RAIN  54  52  93 NE8       30.13S
VALDOSTA       CLOUDY    55  52  89 NE7       30.13S
MOULTRIE       LGT RAIN  54  54 100 CALM      30.15S
BLAKELY        CLOUDY    54  52  94 CALM      30.15F
ALBANY         CLOUDY    52  52 100 E7        30.17F
TIFTON         CLOUDY    53  51  95 E5        30.14F
FITZGERALD     CLOUDY    54  51  91 E6        30.18F
CORDELE        CLOUDY    55  51  89 NE7       30.17F
AMERICUS       CLOUDY    52  52 100 E5        30.18S
HOMERVILLE     CLOUDY    55  54  94 E7        30.14S
$$

!GMZ750-755-770-775-210700
...Coastal and Buoy Obs...

STATION/POSITION TIME  TEMP    WIND        PRES    VSBY  WAVE
                       AIR SEA DIR/SP/G                  HT/PER
                 (UTC) (F)     (DEG/KT/KT) (MB)    (MI)  (FT/S)
KEATON BEACH     0600   59      60/  9/ 13 1018.7S
CEDAR KEY        0600   61      60/  9/  9 1018.9F
C TOWER          0600   59      50/ 21/ 22 1017.7F
APALACHICOLA BUO 0600   71 72  130/ 14/ 14 1017.1F         2/ 8
PANAMA CITY BUOY 0505   69 75   60/ 16/ 17 1016.8R         5/ 6
MOBILE BUOY      0600   64 74   40/ 16/ 19 1018.4R         6/ 6
ORANGE BCH AL BU 0600   56 69   40/ 16/ 17 1018.7F         3/ 6
$$



USA.gov is the U.S. government's official web portal to all federal, state and local government web resources and services.